{"data":{"norad_id":57702,"epoch":"2026-05-25T02:34:22.024704Z","epoch_age_seconds":58982,"freshness":"FRESH","line1":"1 57702U 23129E   26145.10719936  .00000493  00000+0  27416-4 0  9991","line2":"2 57702  43.0051  46.0011 0001036 268.9069  91.1665 15.27585647152374","mean_motion":15.27585647,"eccentricity":0.0001036,"inclination_deg":43.0051,"raan_deg":46.0011,"arg_perigee_deg":268.9069,"mean_anomaly_deg":91.1665,"bstar":2.7416e-5,"rev_number":15237,"period_min":94.266400239358,"perigee_km":482.32136981448,"apogee_km":483.74300407001,"semimajor_km":6861.1691869422,"source":"CELESTRAK","updated_at":"2026-05-25T13:38:18.371741Z"}}